Year,Month,Day,Hour,Minute,Value (Times are PST for temperature in C)
2010,07,25,00,00,17.50
2010,07,25,00,01,17.40
2010,07,25,00,02,17.40
2010,07,25,00,03,17.30
2010,07,25,00,04,17.30
2010,07,25,00,05,17.30
2010,07,25,00,06,17.30
2010,07,25,00,07,17.30
2010,07,25,00,08,17.30
2010,07,25,00,09,17.30
2010,07,25,00,10,17.30
2010,07,25,00,11,17.30
2010,07,25,00,12,17.20
2010,07,25,00,13,17.20
2010,07,25,00,14,17.20
2010,07,25,00,15,17.20
2010,07,25,00,16,17.20
2010,07,25,00,17,17.10
2010,07,25,00,18,17.10
2010,07,25,00,19,17.10
2010,07,25,00,20,17.10
2010,07,25,00,21,17.00
2010,07,25,00,22,17.00
2010,07,25,00,23,17.00
2010,07,25,00,24,17.00
2010,07,25,00,25,17.00
2010,07,25,00,26,16.90
2010,07,25,00,27,16.90
2010,07,25,00,28,16.90
2010,07,25,00,29,16.90
2010,07,25,00,30,16.80
2010,07,25,00,31,16.80
2010,07,25,00,32,16.80
2010,07,25,00,33,16.80
2010,07,25,00,34,16.70
2010,07,25,00,35,16.70
2010,07,25,00,36,16.70
2010,07,25,00,37,16.70
2010,07,25,00,38,16.70
2010,07,25,00,39,16.70
2010,07,25,00,40,16.70
2010,07,25,00,41,16.70
2010,07,25,00,42,16.70
2010,07,25,00,43,16.60
2010,07,25,00,44,16.60
2010,07,25,00,45,16.60
2010,07,25,00,46,16.60
2010,07,25,00,47,16.60
2010,07,25,00,48,16.60
2010,07,25,00,49,16.50
2010,07,25,00,50,16.40
2010,07,25,00,51,16.40
2010,07,25,00,52,16.40
2010,07,25,00,53,16.40
2010,07,25,00,54,16.40
2010,07,25,00,55,16.40
2010,07,25,00,56,16.40
2010,07,25,00,57,16.40
2010,07,25,00,58,16.40
2010,07,25,00,59,16.40
2010,07,25,01,00,16.30
2010,07,25,01,01,16.30
2010,07,25,01,02,16.30
2010,07,25,01,03,16.30
2010,07,25,01,04,16.20
2010,07,25,01,05,16.20
2010,07,25,01,06,16.20
2010,07,25,01,07,16.20
2010,07,25,01,08,16.10
2010,07,25,01,09,16.10
2010,07,25,01,10,16.10
2010,07,25,01,11,16.10
2010,07,25,01,12,16.10
2010,07,25,01,13,16.10
2010,07,25,01,14,16.10
2010,07,25,01,15,16.10
2010,07,25,01,16,16.20
2010,07,25,01,17,16.20
2010,07,25,01,18,16.20
2010,07,25,01,19,16.30
2010,07,25,01,20,16.30
2010,07,25,01,21,16.30
2010,07,25,01,22,16.40
2010,07,25,01,23,16.40
2010,07,25,01,24,16.40
2010,07,25,01,25,16.40
2010,07,25,01,26,16.50
2010,07,25,01,27,16.60
2010,07,25,01,28,16.60
2010,07,25,01,29,16.60
2010,07,25,01,30,16.70
2010,07,25,01,31,16.70
2010,07,25,01,32,16.70
2010,07,25,01,33,16.70
2010,07,25,01,34,16.70
2010,07,25,01,35,16.70
2010,07,25,01,36,16.70
2010,07,25,01,37,16.70
2010,07,25,01,38,16.70
2010,07,25,01,39,16.70
2010,07,25,01,40,16.70
2010,07,25,01,41,16.70
2010,07,25,01,42,16.70
2010,07,25,01,43,16.70
2010,07,25,01,44,16.70
2010,07,25,01,45,16.70
2010,07,25,01,46,16.70
2010,07,25,01,47,16.70
2010,07,25,01,48,16.60
2010,07,25,01,49,16.60
2010,07,25,01,50,16.60
2010,07,25,01,51,16.60
2010,07,25,01,52,16.40
2010,07,25,01,53,16.40
2010,07,25,01,54,16.40
2010,07,25,01,55,16.40
2010,07,25,01,56,16.40
2010,07,25,01,57,16.40
2010,07,25,01,58,16.40
2010,07,25,01,59,16.30
2010,07,25,02,00,16.30
2010,07,25,02,01,16.30
2010,07,25,02,02,16.30
2010,07,25,02,03,16.20
2010,07,25,02,04,16.20
2010,07,25,02,05,16.20
2010,07,25,02,06,16.10
2010,07,25,02,07,16.10
2010,07,25,02,08,16.10
2010,07,25,02,09,16.10
2010,07,25,02,10,16.10
2010,07,25,02,11,16.10
2010,07,25,02,12,16.10
2010,07,25,02,13,16.00
2010,07,25,02,14,15.90
2010,07,25,02,15,15.90
2010,07,25,02,16,15.90
2010,07,25,02,17,15.90
2010,07,25,02,18,15.90
2010,07,25,02,19,15.90
2010,07,25,02,20,15.80
2010,07,25,02,21,15.80
2010,07,25,02,22,15.80
2010,07,25,02,23,15.80
2010,07,25,02,24,15.80
2010,07,25,02,25,15.80
2010,07,25,02,26,15.80
2010,07,25,02,27,15.80
2010,07,25,02,28,15.80
2010,07,25,02,29,15.80
2010,07,25,02,30,15.80
2010,07,25,02,31,15.80
2010,07,25,02,32,15.70
2010,07,25,02,33,15.70
2010,07,25,02,34,15.70
2010,07,25,02,35,15.60
2010,07,25,02,36,15.60
2010,07,25,02,37,15.60
2010,07,25,02,38,15.50
2010,07,25,02,39,15.50
2010,07,25,02,40,15.50
2010,07,25,02,41,15.50
2010,07,25,02,42,15.50
2010,07,25,02,43,15.40
2010,07,25,02,44,15.40
2010,07,25,02,45,15.40
2010,07,25,02,46,15.40
2010,07,25,02,47,15.40
2010,07,25,02,48,15.30
2010,07,25,02,49,15.30
2010,07,25,02,50,15.30
2010,07,25,02,51,15.30
2010,07,25,02,52,15.30
2010,07,25,02,53,15.30
2010,07,25,02,54,15.30
2010,07,25,02,55,15.30
2010,07,25,02,56,15.30
2010,07,25,02,57,15.30
2010,07,25,02,58,15.30
2010,07,25,02,59,15.30
2010,07,25,03,00,15.30
2010,07,25,03,01,15.30
2010,07,25,03,02,15.30
2010,07,25,03,03,15.20
2010,07,25,03,04,15.20
2010,07,25,03,05,15.20
2010,07,25,03,06,15.20
2010,07,25,03,07,15.20
2010,07,25,03,08,15.30
2010,07,25,03,09,15.30
2010,07,25,03,10,15.30
2010,07,25,03,11,15.30
2010,07,25,03,12,15.30
2010,07,25,03,13,15.30
2010,07,25,03,14,15.30
2010,07,25,03,15,15.20
2010,07,25,03,16,15.20
2010,07,25,03,17,15.20
2010,07,25,03,18,15.20
2010,07,25,03,19,15.20
2010,07,25,03,20,15.20
2010,07,25,03,21,15.20
2010,07,25,03,22,15.10
2010,07,25,03,23,15.10
2010,07,25,03,24,15.10
2010,07,25,03,25,15.10
2010,07,25,03,26,15.00
2010,07,25,03,27,15.00
2010,07,25,03,28,15.00
2010,07,25,03,29,14.90
2010,07,25,03,30,14.90
2010,07,25,03,31,14.90
2010,07,25,03,32,14.90
2010,07,25,03,33,14.90
2010,07,25,03,34,14.90
2010,07,25,03,35,14.90
2010,07,25,03,36,14.90
2010,07,25,03,37,14.90
2010,07,25,03,38,14.90
2010,07,25,03,39,14.90
2010,07,25,03,40,14.80
2010,07,25,03,41,14.80
2010,07,25,03,42,14.80
2010,07,25,03,43,14.80
2010,07,25,03,44,14.80
2010,07,25,03,45,14.80
2010,07,25,03,46,14.80
2010,07,25,03,47,14.80
2010,07,25,03,48,14.80
2010,07,25,03,49,14.80
2010,07,25,03,50,14.80
2010,07,25,03,51,14.80
2010,07,25,03,52,14.70
2010,07,25,03,53,14.70
2010,07,25,03,54,14.70
2010,07,25,03,55,14.70
2010,07,25,03,56,14.70
2010,07,25,03,57,14.70
2010,07,25,03,58,14.60
2010,07,25,03,59,14.60
2010,07,25,04,00,14.60
2010,07,25,04,01,14.60
2010,07,25,04,02,14.60
2010,07,25,04,03,14.60
2010,07,25,04,04,14.60
2010,07,25,04,05,14.60
2010,07,25,04,06,14.60
2010,07,25,04,07,14.60
2010,07,25,04,08,14.60
2010,07,25,04,09,14.60
2010,07,25,04,10,14.60
2010,07,25,04,11,14.60
2010,07,25,04,12,14.60
2010,07,25,04,13,14.50
2010,07,25,04,14,14.50
2010,07,25,04,15,14.50
2010,07,25,04,16,14.50
2010,07,25,04,17,14.50
2010,07,25,04,18,14.40
2010,07,25,04,19,14.40
2010,07,25,04,20,14.40
2010,07,25,04,21,14.40
2010,07,25,04,22,14.40
2010,07,25,04,23,14.30
2010,07,25,04,24,14.30
2010,07,25,04,25,14.30
2010,07,25,04,26,14.30
2010,07,25,04,27,14.30
2010,07,25,04,28,14.30
2010,07,25,04,29,14.30
2010,07,25,04,30,14.30
2010,07,25,04,31,14.20
2010,07,25,04,32,14.20
2010,07,25,04,33,14.20
2010,07,25,04,34,14.20
2010,07,25,04,35,14.20
2010,07,25,04,36,14.20
2010,07,25,04,37,14.20
2010,07,25,04,38,14.20
2010,07,25,04,39,14.20
2010,07,25,04,40,14.20
2010,07,25,04,41,14.20
2010,07,25,04,42,14.20
2010,07,25,04,43,14.20
2010,07,25,04,44,14.10
2010,07,25,04,45,14.10
2010,07,25,04,46,14.10
2010,07,25,04,47,14.10
2010,07,25,04,48,14.10
2010,07,25,04,49,14.10
2010,07,25,04,50,14.10
2010,07,25,04,51,14.10
2010,07,25,04,52,14.10
2010,07,25,04,53,14.10
2010,07,25,04,54,14.10
2010,07,25,04,55,14.10
2010,07,25,04,56,14.10
2010,07,25,04,57,14.10
2010,07,25,04,58,14.00
2010,07,25,04,59,14.00
2010,07,25,05,00,14.00
2010,07,25,05,01,14.00
2010,07,25,05,02,14.00
2010,07,25,05,03,13.90
2010,07,25,05,04,13.90
2010,07,25,05,05,13.90
2010,07,25,05,06,13.90
2010,07,25,05,07,13.80
2010,07,25,05,08,13.80
2010,07,25,05,09,13.80
2010,07,25,05,10,13.80
2010,07,25,05,11,13.80
2010,07,25,05,12,13.70
2010,07,25,05,13,13.70
2010,07,25,05,14,13.70
2010,07,25,05,15,13.70
2010,07,25,05,16,13.70
2010,07,25,05,17,13.70
2010,07,25,05,18,13.60
2010,07,25,05,19,13.60
2010,07,25,05,20,13.60
2010,07,25,05,21,13.50
2010,07,25,05,22,13.50
2010,07,25,05,23,13.40
2010,07,25,05,24,13.40
2010,07,25,05,25,13.40
2010,07,25,05,26,13.30
2010,07,25,05,27,13.30
2010,07,25,05,28,13.30
2010,07,25,05,29,13.30
2010,07,25,05,30,13.30
2010,07,25,05,31,13.30
2010,07,25,05,32,13.30
2010,07,25,05,33,13.30
2010,07,25,05,34,13.30
2010,07,25,05,35,13.30
2010,07,25,05,36,13.30
2010,07,25,05,37,13.30
2010,07,25,05,38,13.30
2010,07,25,05,39,13.20
2010,07,25,05,40,13.20
2010,07,25,05,41,13.20
2010,07,25,05,42,13.20
2010,07,25,05,43,13.10
2010,07,25,05,44,13.10
2010,07,25,05,45,13.10
2010,07,25,05,46,13.00
2010,07,25,05,47,13.00
2010,07,25,05,48,13.00
2010,07,25,05,49,13.00
2010,07,25,05,50,13.00
2010,07,25,05,51,13.00
2010,07,25,05,52,13.10
2010,07,25,05,53,13.10
2010,07,25,05,54,13.00
2010,07,25,05,55,13.00
2010,07,25,05,56,13.00
2010,07,25,05,57,13.00
2010,07,25,05,58,13.00
2010,07,25,05,59,13.00
2010,07,25,06,00,13.00
2010,07,25,06,01,13.00
2010,07,25,06,02,13.00
2010,07,25,06,03,13.00
2010,07,25,06,04,12.90
2010,07,25,06,05,12.90
2010,07,25,06,06,12.90
2010,07,25,06,07,13.00
2010,07,25,06,08,13.00
2010,07,25,06,09,13.00
2010,07,25,06,10,13.00
2010,07,25,06,11,13.00
2010,07,25,06,12,13.00
2010,07,25,06,13,13.00
2010,07,25,06,14,13.00
2010,07,25,06,15,13.00
2010,07,25,06,16,13.00
2010,07,25,06,17,13.00
2010,07,25,06,18,13.00
2010,07,25,06,19,13.00
2010,07,25,06,20,13.00
2010,07,25,06,21,13.00
2010,07,25,06,22,13.00
2010,07,25,06,23,13.00
2010,07,25,06,24,13.00
2010,07,25,06,25,13.00
2010,07,25,06,26,13.10
2010,07,25,06,27,13.10
2010,07,25,06,28,13.10
2010,07,25,06,29,13.10
2010,07,25,06,30,13.10
2010,07,25,06,31,13.10
2010,07,25,06,32,13.10
2010,07,25,06,33,13.10
2010,07,25,06,34,13.20
2010,07,25,06,35,13.20
2010,07,25,06,36,13.20
2010,07,25,06,37,13.20
2010,07,25,06,38,13.30
2010,07,25,06,39,13.30
2010,07,25,06,40,13.30
2010,07,25,06,41,13.30
2010,07,25,06,42,13.40
2010,07,25,06,43,13.40
2010,07,25,06,44,13.40
2010,07,25,06,45,13.50
2010,07,25,06,46,13.50
2010,07,25,06,47,13.50
2010,07,25,06,48,13.60
2010,07,25,06,49,13.60
2010,07,25,06,50,13.60
2010,07,25,06,51,13.70
2010,07,25,06,52,13.70
2010,07,25,06,53,13.70
2010,07,25,06,54,13.80
2010,07,25,06,55,13.80
2010,07,25,06,56,13.90
2010,07,25,06,57,13.90
2010,07,25,06,58,14.00
2010,07,25,06,59,14.00
2010,07,25,07,00,14.10
2010,07,25,07,01,14.20
2010,07,25,07,02,14.20
2010,07,25,07,03,14.40
2010,07,25,07,04,14.50
2010,07,25,07,05,14.60
2010,07,25,07,06,14.70
2010,07,25,07,07,14.80
2010,07,25,07,08,14.90
2010,07,25,07,09,15.00
2010,07,25,07,10,15.10
2010,07,25,07,11,15.10
2010,07,25,07,12,15.20
2010,07,25,07,13,15.20
2010,07,25,07,14,15.30
2010,07,25,07,15,15.30
2010,07,25,07,16,15.40
2010,07,25,07,17,15.40
2010,07,25,07,18,15.40
2010,07,25,07,19,15.50
2010,07,25,07,20,15.60
2010,07,25,07,21,15.80
2010,07,25,07,22,15.80
2010,07,25,07,23,15.90
2010,07,25,07,24,16.00
2010,07,25,07,25,16.10
2010,07,25,07,26,15.90
2010,07,25,07,27,15.90
2010,07,25,07,28,16.10
2010,07,25,07,29,16.10
2010,07,25,07,30,16.20
2010,07,25,07,31,16.20
2010,07,25,07,32,16.30
2010,07,25,07,33,16.40
2010,07,25,07,34,16.40
2010,07,25,07,35,16.50
2010,07,25,07,36,16.60
2010,07,25,07,37,16.70
2010,07,25,07,38,16.70
2010,07,25,07,39,16.70
2010,07,25,07,40,16.70
2010,07,25,07,41,16.80
2010,07,25,07,42,16.80
2010,07,25,07,43,16.90
2010,07,25,07,44,16.90
2010,07,25,07,45,17.00
2010,07,25,07,46,17.00
2010,07,25,07,47,17.10
2010,07,25,07,48,17.10
2010,07,25,07,49,17.20
2010,07,25,07,50,17.10
2010,07,25,07,51,17.10
2010,07,25,07,52,17.10
2010,07,25,07,53,17.10
2010,07,25,07,54,17.20
2010,07,25,07,55,17.30
2010,07,25,07,56,17.30
2010,07,25,07,57,17.40
2010,07,25,07,58,17.40
2010,07,25,07,59,17.50
2010,07,25,08,00,17.60
2010,07,25,08,01,17.70
2010,07,25,08,02,17.80
2010,07,25,08,03,17.90
2010,07,25,08,04,17.90
2010,07,25,08,05,17.90
2010,07,25,08,06,17.90
2010,07,25,08,07,17.90
2010,07,25,08,08,17.90
2010,07,25,08,09,17.90
2010,07,25,08,10,17.90
2010,07,25,08,11,17.80
2010,07,25,08,12,17.80
2010,07,25,08,13,17.80
2010,07,25,08,14,17.80
2010,07,25,08,15,17.70
2010,07,25,08,16,17.80
2010,07,25,08,17,17.80
2010,07,25,08,18,17.80
2010,07,25,08,19,17.80
2010,07,25,08,20,17.80
2010,07,25,08,21,17.70
2010,07,25,08,22,17.70
2010,07,25,08,23,17.60
2010,07,25,08,24,17.60
2010,07,25,08,25,17.60
2010,07,25,08,26,17.60
2010,07,25,08,27,17.60
2010,07,25,08,28,17.60
2010,07,25,08,29,17.70
2010,07,25,08,30,17.70
2010,07,25,08,31,17.70
2010,07,25,08,32,17.80
2010,07,25,08,33,17.80
2010,07,25,08,34,17.90
2010,07,25,08,35,17.90
2010,07,25,08,36,17.90
2010,07,25,08,37,18.00
2010,07,25,08,38,18.10
2010,07,25,08,39,18.20
2010,07,25,08,40,18.20
2010,07,25,08,41,18.30
2010,07,25,08,42,18.40
2010,07,25,08,43,18.50
2010,07,25,08,44,18.50
2010,07,25,08,45,18.50
2010,07,25,08,46,18.40
2010,07,25,08,47,18.40
2010,07,25,08,48,18.40
2010,07,25,08,49,18.50
2010,07,25,08,50,18.50
2010,07,25,08,51,18.60
2010,07,25,08,52,18.60
2010,07,25,08,53,18.70
2010,07,25,08,54,18.80
2010,07,25,08,55,18.90
2010,07,25,08,56,18.90
2010,07,25,08,57,18.90
2010,07,25,08,58,18.90
2010,07,25,08,59,18.90
2010,07,25,09,00,18.90
2010,07,25,09,01,19.00
2010,07,25,09,02,19.10
2010,07,25,09,03,19.00
2010,07,25,09,04,18.90
2010,07,25,09,05,18.90
2010,07,25,09,06,18.80
2010,07,25,09,07,18.80
2010,07,25,09,08,18.90
2010,07,25,09,09,18.90
2010,07,25,09,10,19.00
2010,07,25,09,11,19.10
2010,07,25,09,12,19.10
2010,07,25,09,13,19.30
2010,07,25,09,14,19.30
2010,07,25,09,15,19.40
2010,07,25,09,16,19.40
2010,07,25,09,17,19.40
2010,07,25,09,18,19.40
2010,07,25,09,19,19.40
2010,07,25,09,20,19.30
2010,07,25,09,21,19.10
2010,07,25,09,22,18.90
2010,07,25,09,23,18.90
2010,07,25,09,24,18.80
2010,07,25,09,25,18.60
2010,07,25,09,26,18.60
2010,07,25,09,27,18.60
2010,07,25,09,28,18.40
2010,07,25,09,29,18.30
2010,07,25,09,30,18.20
2010,07,25,09,31,18.20
2010,07,25,09,32,18.20
2010,07,25,09,33,18.20
2010,07,25,09,34,18.30
2010,07,25,09,35,18.40
2010,07,25,09,36,18.50
2010,07,25,09,37,18.60
2010,07,25,09,38,18.70
2010,07,25,09,39,18.80
2010,07,25,09,40,18.90
2010,07,25,09,41,19.00
2010,07,25,09,42,18.90
2010,07,25,09,43,18.90
2010,07,25,09,44,18.90
2010,07,25,09,45,18.90
2010,07,25,09,46,18.90
2010,07,25,09,47,18.80
2010,07,25,09,48,18.70
2010,07,25,09,49,18.70
2010,07,25,09,50,18.70
2010,07,25,09,51,18.70
2010,07,25,09,52,18.80
2010,07,25,09,53,18.90
2010,07,25,09,54,19.00
2010,07,25,09,55,19.10
2010,07,25,09,56,19.20
2010,07,25,09,57,19.30
2010,07,25,09,58,19.40
2010,07,25,09,59,19.50
2010,07,25,10,00,19.60
2010,07,25,10,01,19.60
2010,07,25,10,02,19.70
2010,07,25,10,03,19.60
2010,07,25,10,04,19.60
2010,07,25,10,05,19.60
2010,07,25,10,06,19.70
2010,07,25,10,07,19.60
2010,07,25,10,08,19.50
2010,07,25,10,09,19.50
2010,07,25,10,10,19.40
2010,07,25,10,11,19.50
2010,07,25,10,12,19.60
2010,07,25,10,13,19.60
2010,07,25,10,14,19.70
2010,07,25,10,15,19.80
2010,07,25,10,16,19.80
2010,07,25,10,17,19.70
2010,07,25,10,18,19.60
2010,07,25,10,19,19.30
2010,07,25,10,20,19.00
2010,07,25,10,21,18.90
2010,07,25,10,22,18.90
2010,07,25,10,23,18.70
2010,07,25,10,24,18.70
2010,07,25,10,25,18.70
2010,07,25,10,26,18.70
2010,07,25,10,27,18.70
2010,07,25,10,28,18.60
2010,07,25,10,29,18.60
2010,07,25,10,30,18.50
2010,07,25,10,31,18.60
2010,07,25,10,32,18.70
2010,07,25,10,33,18.80
2010,07,25,10,34,18.90
2010,07,25,10,35,19.00
2010,07,25,10,36,19.10
2010,07,25,10,37,19.20
2010,07,25,10,38,19.40
2010,07,25,10,39,19.50
2010,07,25,10,40,19.50
2010,07,25,10,41,19.60
2010,07,25,10,42,19.60
2010,07,25,10,43,19.50
2010,07,25,10,44,19.50
2010,07,25,10,45,19.40
2010,07,25,10,46,19.30
2010,07,25,10,47,19.40
2010,07,25,10,48,19.50
2010,07,25,10,49,19.50
2010,07,25,10,50,19.50
2010,07,25,10,51,19.60
2010,07,25,10,52,19.70
2010,07,25,10,53,19.80
2010,07,25,10,54,20.00
2010,07,25,10,55,20.10
2010,07,25,10,56,20.20
2010,07,25,10,57,20.20
2010,07,25,10,58,20.10
2010,07,25,10,59,20.10
2010,07,25,11,00,20.00
2010,07,25,11,01,19.90
2010,07,25,11,02,20.00
2010,07,25,11,03,20.10
2010,07,25,11,04,20.00
2010,07,25,11,05,19.90
2010,07,25,11,06,20.00
2010,07,25,11,07,20.10
2010,07,25,11,08,20.10
2010,07,25,11,09,20.10
2010,07,25,11,10,20.10
2010,07,25,11,11,20.20
2010,07,25,11,12,20.40
2010,07,25,11,13,20.50
2010,07,25,11,14,20.50
2010,07,25,11,15,20.40
2010,07,25,11,16,20.40
2010,07,25,11,17,20.40
2010,07,25,11,18,20.40
2010,07,25,11,19,20.40
2010,07,25,11,20,20.30
2010,07,25,11,21,20.20
2010,07,25,11,22,20.10
2010,07,25,11,23,20.10
2010,07,25,11,24,20.10
2010,07,25,11,25,19.90
2010,07,25,11,26,19.70
2010,07,25,11,27,19.60
2010,07,25,11,28,19.70
2010,07,25,11,29,19.80
2010,07,25,11,30,19.90
2010,07,25,11,31,19.90
2010,07,25,11,32,20.00
2010,07,25,11,33,20.10
2010,07,25,11,34,20.00
2010,07,25,11,35,20.00
2010,07,25,11,36,20.20
2010,07,25,11,37,20.30
2010,07,25,11,38,20.40
2010,07,25,11,39,20.50
2010,07,25,11,40,20.70
2010,07,25,11,41,20.80
2010,07,25,11,42,20.90
2010,07,25,11,43,21.00
2010,07,25,11,44,20.80
2010,07,25,11,45,20.60
2010,07,25,11,46,20.50
2010,07,25,11,47,20.50
2010,07,25,11,48,20.70
2010,07,25,11,49,20.70
2010,07,25,11,50,20.80
2010,07,25,11,51,20.70
2010,07,25,11,52,20.60
2010,07,25,11,53,20.50
2010,07,25,11,54,20.40
2010,07,25,11,55,20.30
2010,07,25,11,56,20.30
2010,07,25,11,57,20.30
2010,07,25,11,58,20.30
2010,07,25,11,59,20.30
2010,07,25,12,00,20.30
2010,07,25,12,01,20.30
2010,07,25,12,02,20.20
2010,07,25,12,03,20.20
2010,07,25,12,04,20.20
2010,07,25,12,05,20.20
2010,07,25,12,06,20.30
2010,07,25,12,07,20.30
2010,07,25,12,08,20.20
2010,07,25,12,09,20.10
2010,07,25,12,10,20.20
2010,07,25,12,11,20.30
2010,07,25,12,12,20.20
2010,07,25,12,13,20.20
2010,07,25,12,14,20.20
2010,07,25,12,15,20.20
2010,07,25,12,16,20.30
2010,07,25,12,17,20.50
2010,07,25,12,18,20.70
2010,07,25,12,19,20.80
2010,07,25,12,20,20.80
2010,07,25,12,21,20.60
2010,07,25,12,22,20.40
2010,07,25,12,23,20.30
2010,07,25,12,24,20.10
2010,07,25,12,25,20.00
2010,07,25,12,26,19.90
2010,07,25,12,27,19.90
2010,07,25,12,28,19.90
2010,07,25,12,29,20.10
2010,07,25,12,30,20.10
2010,07,25,12,31,20.00
2010,07,25,12,32,20.00
2010,07,25,12,33,20.00
2010,07,25,12,34,20.00
2010,07,25,12,35,20.10
2010,07,25,12,36,20.20
2010,07,25,12,37,20.30
2010,07,25,12,38,20.40
2010,07,25,12,39,20.50
2010,07,25,12,40,20.60
2010,07,25,12,41,20.70
2010,07,25,12,42,20.70
2010,07,25,12,43,20.60
2010,07,25,12,44,20.60
2010,07,25,12,45,20.50
2010,07,25,12,46,20.50
2010,07,25,12,47,20.50
2010,07,25,12,48,20.60
2010,07,25,12,49,20.80
2010,07,25,12,50,20.80
2010,07,25,12,51,21.00
2010,07,25,12,52,21.10
2010,07,25,12,53,21.20
2010,07,25,12,54,21.20
2010,07,25,12,55,21.10
2010,07,25,12,56,21.20
2010,07,25,12,57,21.30
2010,07,25,12,58,21.30
2010,07,25,12,59,21.10
2010,07,25,13,00,21.00
2010,07,25,13,01,20.90
2010,07,25,13,02,20.80
2010,07,25,13,03,20.80
2010,07,25,13,04,20.80
2010,07,25,13,05,20.90
2010,07,25,13,06,21.00
2010,07,25,13,07,21.10
2010,07,25,13,08,21.20
2010,07,25,13,09,21.30
2010,07,25,13,10,21.30
2010,07,25,13,11,21.30
2010,07,25,13,12,21.30
2010,07,25,13,13,21.30
2010,07,25,13,14,21.40
2010,07,25,13,15,21.50
2010,07,25,13,16,21.50
2010,07,25,13,17,21.40
2010,07,25,13,18,21.30
2010,07,25,13,19,21.40
2010,07,25,13,20,21.50
2010,07,25,13,21,21.60
2010,07,25,13,22,21.60
2010,07,25,13,23,21.70
2010,07,25,13,24,21.70
2010,07,25,13,25,21.60
2010,07,25,13,26,21.60
2010,07,25,13,27,21.60
2010,07,25,13,28,21.60
2010,07,25,13,29,21.60
2010,07,25,13,30,21.70
2010,07,25,13,31,21.80
2010,07,25,13,32,21.90
2010,07,25,13,33,21.90
2010,07,25,13,34,22.00
2010,07,25,13,35,22.00
2010,07,25,13,36,21.90
2010,07,25,13,37,21.90
2010,07,25,13,38,21.90
2010,07,25,13,39,22.00
2010,07,25,13,40,22.00
2010,07,25,13,41,22.00
2010,07,25,13,42,21.90
2010,07,25,13,43,21.70
2010,07,25,13,44,21.80
2010,07,25,13,45,21.70
2010,07,25,13,46,21.70
2010,07,25,13,47,21.70
2010,07,25,13,48,21.50
2010,07,25,13,49,21.30
2010,07,25,13,50,21.20
2010,07,25,13,51,21.20
2010,07,25,13,52,21.20
2010,07,25,13,53,21.20
2010,07,25,13,54,21.20
2010,07,25,13,55,21.20
2010,07,25,13,56,21.30
2010,07,25,13,57,21.10
2010,07,25,13,58,21.00
2010,07,25,13,59,21.00
2010,07,25,14,00,20.90
2010,07,25,14,01,21.00
2010,07,25,14,02,21.10
2010,07,25,14,03,21.30
2010,07,25,14,04,21.40
2010,07,25,14,05,21.60
2010,07,25,14,06,21.70
2010,07,25,14,07,21.90
2010,07,25,14,08,21.90
2010,07,25,14,09,22.00
2010,07,25,14,10,22.00
2010,07,25,14,11,22.00
2010,07,25,14,12,21.90
2010,07,25,14,13,22.00
2010,07,25,14,14,22.00
2010,07,25,14,15,22.00
2010,07,25,14,16,21.90
2010,07,25,14,17,21.80
2010,07,25,14,18,21.60
2010,07,25,14,19,21.50
2010,07,25,14,20,21.40
2010,07,25,14,21,21.30
2010,07,25,14,22,21.30
2010,07,25,14,23,21.30
2010,07,25,14,24,21.40
2010,07,25,14,25,21.60
2010,07,25,14,26,21.70
2010,07,25,14,27,21.90
2010,07,25,14,28,22.10
2010,07,25,14,29,22.30
2010,07,25,14,30,22.50
2010,07,25,14,31,22.60
2010,07,25,14,32,22.70
2010,07,25,14,33,22.80
2010,07,25,14,34,22.60
2010,07,25,14,35,22.60
2010,07,25,14,36,22.50
2010,07,25,14,37,22.60
2010,07,25,14,38,22.50
2010,07,25,14,39,22.30
2010,07,25,14,40,22.10
2010,07,25,14,41,22.00
2010,07,25,14,42,21.90
2010,07,25,14,43,22.00
2010,07,25,14,44,22.00
2010,07,25,14,45,22.10
2010,07,25,14,46,22.20
2010,07,25,14,47,22.40
2010,07,25,14,48,22.60
2010,07,25,14,49,22.70
2010,07,25,14,50,22.80
2010,07,25,14,51,22.90
2010,07,25,14,52,23.10
2010,07,25,14,53,23.10
2010,07,25,14,54,23.10
2010,07,25,14,55,23.20
2010,07,25,14,56,23.30
2010,07,25,14,57,23.30
2010,07,25,14,58,23.30
2010,07,25,14,59,23.30
2010,07,25,15,00,23.30
2010,07,25,15,01,23.20
2010,07,25,15,02,23.20
2010,07,25,15,03,23.20
2010,07,25,15,04,23.20
2010,07,25,15,05,23.30
2010,07,25,15,06,23.30
2010,07,25,15,07,23.40
2010,07,25,15,08,23.50
2010,07,25,15,09,23.60
2010,07,25,15,10,23.70
2010,07,25,15,11,23.80
2010,07,25,15,12,23.90
2010,07,25,15,13,24.00
2010,07,25,15,14,24.10
2010,07,25,15,15,24.10
2010,07,25,15,16,24.10
2010,07,25,15,17,24.10
2010,07,25,15,18,24.10
2010,07,25,15,19,24.10
2010,07,25,15,20,24.10
2010,07,25,15,21,23.90
2010,07,25,15,22,23.70
2010,07,25,15,23,23.70
2010,07,25,15,24,23.60
2010,07,25,15,25,23.30
2010,07,25,15,26,23.30
2010,07,25,15,27,23.30
2010,07,25,15,28,23.40
2010,07,25,15,29,23.40
2010,07,25,15,30,23.30
2010,07,25,15,31,23.30
2010,07,25,15,32,23.40
2010,07,25,15,33,23.50
2010,07,25,15,34,23.60
2010,07,25,15,35,23.70
2010,07,25,15,36,23.70
2010,07,25,15,37,23.70
2010,07,25,15,38,23.80
2010,07,25,15,39,23.90
2010,07,25,15,40,24.10
2010,07,25,15,41,24.20
2010,07,25,15,42,24.20
2010,07,25,15,43,24.10
2010,07,25,15,44,24.10
2010,07,25,15,45,24.10
2010,07,25,15,46,24.10
2010,07,25,15,47,24.20
2010,07,25,15,48,24.30
2010,07,25,15,49,24.30
2010,07,25,15,50,24.40
2010,07,25,15,51,24.50
2010,07,25,15,52,24.50
2010,07,25,15,53,24.60
2010,07,25,15,54,24.40
2010,07,25,15,55,24.20
2010,07,25,15,56,24.20
2010,07,25,15,57,24.10
2010,07,25,15,58,24.20
2010,07,25,15,59,24.20
2010,07,25,16,00,24.30
2010,07,25,16,01,24.30
2010,07,25,16,02,24.10
2010,07,25,16,03,23.80
2010,07,25,16,04,23.70
2010,07,25,16,05,23.70
2010,07,25,16,06,23.70
2010,07,25,16,07,23.70
2010,07,25,16,08,23.60
2010,07,25,16,09,23.70
2010,07,25,16,10,23.80
2010,07,25,16,11,23.80
2010,07,25,16,12,23.90
2010,07,25,16,13,23.90
2010,07,25,16,14,23.90
2010,07,25,16,15,23.90
2010,07,25,16,16,23.70
2010,07,25,16,17,23.60
2010,07,25,16,18,23.40
2010,07,25,16,19,23.30
2010,07,25,16,20,23.30
2010,07,25,16,21,23.20
2010,07,25,16,22,23.10
2010,07,25,16,23,23.10
2010,07,25,16,24,23.20
2010,07,25,16,25,23.30
2010,07,25,16,26,23.30
2010,07,25,16,27,23.30
2010,07,25,16,28,23.30
2010,07,25,16,29,23.30
2010,07,25,16,30,23.50
2010,07,25,16,31,23.60
2010,07,25,16,32,23.60
2010,07,25,16,33,23.60
2010,07,25,16,34,23.50
2010,07,25,16,35,23.40
2010,07,25,16,36,23.50
2010,07,25,16,37,23.70
2010,07,25,16,38,23.80
2010,07,25,16,39,24.00
2010,07,25,16,40,24.10
2010,07,25,16,41,24.10
2010,07,25,16,42,24.20
2010,07,25,16,43,24.20
2010,07,25,16,44,24.30
2010,07,25,16,45,24.40
2010,07,25,16,46,24.50
2010,07,25,16,47,24.60
2010,07,25,16,48,24.70
2010,07,25,16,49,24.80
2010,07,25,16,50,24.80
2010,07,25,16,51,24.90
2010,07,25,16,52,25.00
2010,07,25,16,53,25.00
2010,07,25,16,54,25.00
2010,07,25,16,55,24.90
2010,07,25,16,56,24.80
2010,07,25,16,57,24.60
2010,07,25,16,58,24.50
2010,07,25,16,59,24.40
2010,07,25,17,00,24.30
2010,07,25,17,01,24.20
2010,07,25,17,02,24.20
2010,07,25,17,03,24.20
2010,07,25,17,04,24.20
2010,07,25,17,05,24.20
2010,07,25,17,06,24.30
2010,07,25,17,07,24.30
2010,07,25,17,08,24.20
2010,07,25,17,09,24.10
2010,07,25,17,10,24.10
2010,07,25,17,11,24.10
2010,07,25,17,12,24.30
2010,07,25,17,13,24.30
2010,07,25,17,14,24.30
2010,07,25,17,15,24.30
2010,07,25,17,16,24.40
2010,07,25,17,17,24.40
2010,07,25,17,18,24.50
2010,07,25,17,19,24.50